Home   Weather   Brasilia   Past weeks
Flag for Brazil

Past Weather in Brasilia, Distrito Federal, Brazil — Yesterday and Last 2 Weeks

Now
75 °F

Partly sunny.


Feels Like: 75 °F
Forecast: 75 / 65 °F
Wind: 7 mph from East

Location: Brasilia Aeroporto

Current Time: Mar 23, 2019 at 10:25:57 am

Latest Report: Mar 23, 2019 at 9:00 am


Visibility: N/A

Pressure: 30.12 "Hg (26.57 "Hg at 1091m altitude)

Humidity: 83%

Dew Point: 70 °F

Location of BrasiliaLocation

Past Weather in Brasilia — Graph

°F

Brasilia Temperature Yesterday

Maximum temperature yesterday: 82 °F (at 1:00 pm)
Minimum temperature yesterday: 68 °F (at 5:00 am)
Average temperature yesterday: 72 °F

High & Low Weather Summary for the Past Weeks

 TemperatureHumidityPressure
High88 °F (Mar 9, 5:00 pm)100% (Mar 10, 6:00 pm)30.18 "Hg (Mar 10, 6:00 pm)
Low37 °F (Mar 10, 7:00 pm)40% (Mar 9, 5:00 pm)29.92 "Hg (Mar 20, 2:00 pm)
Average74 °F77%30.06 "Hg
* Reported Mar 8 9:00 am — Mar 23 9:00 am, Brasilia. Weather by CustomWeather, © 2019

Note: Actual official high and low records may vary slightly from our data, if they occured in-between our weather recording intervals... More about our weather records

Advertising

Brasilia Weather History for the Previous 24 Hours

Scroll right to see more
 ConditionsComfort  
Time TempWeatherWind HumidityBarometerVisibility
9:00 am
Sat, Mar 23
75 °FPartly sunny.7 mph83%30.12 "HgN/A
8:00 am73 °FPartly sunny.5 mph89%30.09 "HgN/A
7:30 am73 °FPartly sunny.3 mph89%30.09 "HgN/A
7:00 am72 °FBroken clouds.2 mph94%30.09 "HgN/A
6:00 am68 °FPartly cloudy.3 mph94%30.07 "HgN/A
5:00 am68 °FPartly cloudy.3 mph94%30.04 "HgN/A
4:00 am68 °FPassing clouds.8 mph94%30.04 "HgN/A
3:00 am68 °FPassing clouds.6 mph94%30.04 "HgN/A
2:00 am68 °FPassing clouds.5 mph100%30.07 "HgN/A
1:00 am68 °FPassing clouds.3 mph94%30.07 "HgN/A
12:40 am68 °FLight rain. Passing clouds.5 mph94%30.07 "HgN/A
12:18 am68 °FRain. Passing clouds.3 mph94%30.07 "HgN/A
11:17 pm
Fri, Mar 22
68 °FRain. Partly cloudy.7 mph100%30.07 "HgN/A
10:00 pm70 °FPassing clouds.5 mph94%30.07 "HgN/A
9:00 pm72 °FPassing clouds.6 mph88%30.07 "HgN/A
8:00 pm72 °FPassing clouds.3 mph94%30.04 "HgN/A
7:00 pm72 °FThundershowers. Partly cloudy.2 mph88%N/AN/A
6:00 pm72 °FThundershowers. Broken clouds.1 mph83%N/AN/A
5:00 pm70 °FThundershowers. Partly sunny.3 mph88%N/AN/A
4:35 pm70 °FThundershowers. Partly sunny.7 mph88%29.98 "HgN/A
4:00 pm68 °FThunderstorms. Partly sunny.12 mph94%N/A2 mi
3:17 pm75 °FStrong thunderstorms. Partly sunny.20 mph74%29.95 "Hg1 mi
3:00 pm79 °FPartly sunny.10 mph70%29.95 "HgN/A
2:00 pm82 °FBroken clouds.5 mph55%29.98 "HgN/A
1:00 pm82 °FPartly sunny.6 mph55%30.04 "HgN/A
12:00 pm81 °FPartly sunny.2 mph62%30.07 "HgN/A
11:00 am79 °FPartly sunny.3 mph61%30.07 "HgN/A
10:13 am77 °FBroken clouds.2 mph74%30.09 "HgN/A
10:00 am75 °FBroken clouds.3 mph78%30.09 "HgN/A
Weather by CustomWeather, © 2019

See weather overview